Location: New Plymouth
(39.0670°S, 174.0830°E)
Time: 13:51:37
(UTC+13:00)

Cosmos 2322 Rocket - Pass Details

Date: 24 January 2019
Orbit: 834 x 849 km, 71.0° (Epoch: 19 February)

Event Time Altitude Azimuth Distance (km) Brightness Sun altitude
Rises 22:56:39 0° 313° (NW) 3,391 5.3 -20.9°
Reaches altitude 10° 22:59:19 10° 303° (WNW) 2,466 4.7 -21.2°
Maximum altitude 23:04:25 34° 239° (WSW) 1,383 3.9 -21.8°
Drops below altitude 10° 23:09:36 10° 175° (S) 2,500 5.3 -22.4°
Sets 23:12:19 0° 165° (SSE) 3,444 5.9 -22.8°
